Location: Home
(42.5358°N, 72.7383°W)
Time: 21:08:14
(UTC-05:00)

Altair - Pass Details

Date: 08 December 2021
Orbit: 1501 x 1683 km, 47.2° (Epoch: 26 January)

Event Time Altitude Azimuth Distance (km) Brightness Sun altitude
Rises 16:37:39 0° 271° (W) 4,770 11.3 -4.0°
Reaches altitude 10° 16:40:50 10° 274° (W) 3,762 10.6 -4.6°
Maximum altitude 16:50:16 67° 356° (N) 1,642 7.6 -6.1°
Drops below altitude 10° 16:59:26 10° 79° (E) 3,659 8.8 -7.7°
Enters shadow 17:00:08 - 80° (E) 3,879 9.0 -7.8°
